www.pogodaiklimat.ru

Погода и климат >> Архив погоды >> Казахстан >> Саумалколь


ПОГОДА в Саумалколе

  • Прогноз погоды в Саумалколе
  • Монитор погоды в Саумалколе
  • Климат города

АРХИВ ПОГОДЫ в Саумалколе

Время (UTC), дата Ветер
(напр.,м/с)
 
Видим.   Явления Облачность Т
(С)
Тd
(С)
f
(%)
Тe
(С)
Тes
(С)
Комфортность P
(гПа)
Po
(гПа)
Тmin
(С)
Tmax
(С)
R
(мм)
R24
(мм)
S
(см)
03 8.12 СВ 1 н/о ясно -13.5 -21.3 52 -16 -16 1030.2 987.3 16
06 8.12 штиль 0 20 км ясно -8.6 -26.4 22 -9 -7 1029.5 987.4 -13.5
09 8.12 штиль 0 20 км ясно -6.1 -24.7 21 -6 -5 1028.3 986.6
12 8.12 штиль 0 н/о ясно -9.9 -26.3 25 -10 -10 1028.8 986.5
18 8.12 штиль 0 н/о ясно -15.2 -24.0 47 -15 -15 1029.2 986.1 -5.9
21 8.12 штиль 0 н/о ясно -18.6 -24.8 58 -19 -19 1030.2 986.4
00 9.12 штиль 0 н/о ясно -16.4 -26.3 42 -16 -16 1028.8 985.5
03 9.12 штиль 0 н/о ясно -17.0 -26.6 43 -17 -17 1028.9 985.5 16
06 9.12 штиль 0 20 км ясно -15.4 -25.7 41 -15 -14 1028.6 985.5 -18.6
09 9.12 штиль 0 20 км ясно -10.2 -23.4 33 -10 -9 1027.1 984.9
12 9.12 штиль 0 н/о ясно -12.3 -24.3 36 -12 -12 1027.2 984.6
15 9.12 СВ 1 н/о ясно -16.5 -21.7 64 -19 -19 1027.5 984.2 -10.2
18 9.12 штиль 0 н/о дымка ясно -18.0 -21.2 76 -18 -18 1027.3 983.8 -10.2
21 9.12 штиль 0 н/о дымка ясно -20.9 -23.3 81 -21 -21 1027.6 983.6
00 10.12 штиль 0 н/о дымка ясно -21.7 -23.4 86 -22 -22 1027.2 983.1
03 10.12 штиль 0 н/о дымка ясно -20.8 -22.4 87 -21 -21 1027.1 983.1 16
06 10.12 штиль 0 20 км ясно -17.8 -22.3 68 -18 -17 1026.9 983.4 -22.0
09 10.12 штиль 0 20 км ясно -11.9 -22.8 40 -12 -11 1025.9 983.5
12 10.12 штиль 0 н/о ясно -15.2 -25.8 40 -15 -15 1027.0 984.0
15 10.12 штиль 0 н/о ясно -18.3 -27.8 43 -18 -18 1028.0 984.4 -11.5
18 10.12 штиль 0 н/о ясно -21.3 -27.8 56 -21 -21 1029.1 984.9 -11.5
21 10.12 штиль 0 н/о ясно -21.8 -27.5 60 -22 -22 1029.2 984.9
00 11.12 штиль 0 н/о ясно -22.6 -27.4 65 -23 -23 1029.4 985.0
03 11.12 штиль 0 н/о ясно -23.6 -27.7 69 -24 -24 1030.3 985.7 16
06 11.12 ЮЗ 1 20 км ясно -19.0 -23.9 65 -22 -21 1030.2 986.4 -23.6
09 11.12 З 1 20 км ясно -15.4 -23.7 49 -18 -17 1029.4 986.2
12 11.12 штиль 0 н/о ясно -18.0 -25.1 54 -18 -18 1030.8 987.1
18 11.12 штиль 0 н/о дымка ясно -25.2 -27.9 78 -25 -25 1032.5 987.5 -15.4
21 11.12 штиль 0 н/о дымка ясно -25.4 -27.8 80 -25 -25 1032.8 987.7
00 12.12 ЮЗ 1 н/о дымка 6/6 600 м
[Sc]
-22.6 -25.5 77 -26 -26 1032.6 988.0
03 12.12 З 2 н/о дымка 4/3 600 м
[Sc Ac trans]
-20.6 -23.6 77 -27 -27 1032.8 988.6 16
06 12.12 штиль 0 500 м переохл. туман ?/? -17.7 -18.8 91 -18 -18 1032.9 989.2 -25.9
12 12.12 ЮЗ 1 н/о дымка {туман} 9/8 600 м
[Sc Ci ing]
-13.6 -15.3 87 -16 -16 1032.4 989.4
15 12.12 штиль 0 н/о дымка 8/8 600 м
[Sc]
-15.0 -18.4 75 -15 -15 1032.6 989.4 -13.0
18 12.12 штиль 0 н/о дымка 4/4 600 м
[Sc]
-16.4 -20.6 70 -16 -16 1032.6 989.2 -13.0
00 13.12 ЮЗ 1 н/о 4/4 600 м
[Sc]
-16.2 -21.6 63 -19 -19 1033.2 989.8
03 13.12 ЮЗ 2 н/о переохл. туман ?/? -15.2 -16.7 88 -20 -20 1032.6 989.4 16
06 13.12 штиль 0 4000 м дымка {туман} ясно -14.6 -16.3 87 -15 -14 1032.8 989.7 -16.4
09 13.12 Ю 1 4000 м дымка 9/0
[Cc]
-12.3 -15.7 76 -15 -14 1031.8 989.1
12 13.12 ЮЗ 1 н/о дымка 8/0
[Cc]
-13.4 -16.4 78 -16 -16 1031.8 988.9
15 13.12 ЮЗ 3 н/о дымка 3/0
[Ci ing]
-13.8 -17.6 73 -20 -20 1031.4 988.4 -12.3
18 13.12 ЮЗ 4 н/о ясно -13.5 -18.9 64 -21 -21 1031.1 988.2 -12.3
21 13.12 ЮЗ 4 н/о ясно -13.3 -19.4 60 -21 -21 1031.1 988.2
00 14.12 ЮЗ 3 н/о 10/10 600 м
[Sc]
-11.0 -17.7 58 -17 -17 1031.0 988.5
03 14.12 ЮЗ 3 н/о 1/1 600 м
[Sc]
-13.4 -20.5 55 -20 -20 1031.3 988.4 16
06 14.12 З 1 20 км 4/0
[Ac trans Ci ing]
-11.1 -20.5 46 -13 -12 1031.8 989.2 -14.2
12 14.12 штиль 0 н/о ясно -13.1 -22.8 44 -13 -13 1032.4 989.5
18 14.12 штиль 0 н/о ясно -15.9 -22.5 57 -16 -16 1032.1 988.8 -9.4
00 15.12 штиль 0 н/о ясно -17.5 -22.9 63 -18 -18 1031.0 987.4

 

Местоположение метеостанции Саумалколь (Северо-Казахстанская область, Казахстан): широта 53.32 долгота 68.10 высота над уровнем моря 319 м.

В архиве по умолчанию представлена погода в Саумалколе за последнюю неделю. Архивные данные за месяц целиком и за предыдущие месяцы, начиная с января 2011 года, Вы можете получить, выбрав интересующий диапазон дат из раскрывающегося списка и нажав кнопку "Ввод!".


*Определитесь, кто Вы:
робот инопланетянин человек

Внимание! Время в таблицах - всемирное. Для получения местного времени необходимо прибавить поправку, которая в Саумалколе равна 5 ч.

Смотрите также архив погоды в соседних городах и на ближайших метеорологических станциях:

Погода в Еленовке (Акмолинская область, Казахстан) (53 км)
Погода в Сергеевке (Северо-Казахстанская область, Казахстан) (77 км)
Погода в Приозерном (Акмолинская область, Казахстан) (83 км)
Погода в Зеренде (Акмолинская область, Казахстан) (84 км)
Погода в Кокшетау (Акмолинская область, Казахстан) (85 км)
Погода в Рузаевке (Северо-Казахстанская область, Казахстан) (94 км)
Погода в Балкашино (Акмолинская область, Казахстан) (98 км)
Погода в Тимирязево (Северо-Казахстанская область, Казахстан) (117 км)
Погода в Тайынше (Северо-Казахстанская область, Казахстан) (125 км)
Погода в Благовещенке (Северо-Казахстанская область, Казахстан) (138 км)

Пояснения к столбцам:

Ветер - указаны скорость ветра в м/с - средняя за 10 мин, порывы в срок и между сроками (в фигурных скобках) и направление, откуда дует ветер: С - северный, СВ - северо-восточный, В - восточный, ЮВ - юго-восточный, Ю - южный, ЮЗ - юго-западный, З - западный, СЗ - северо-западный.
Видимость - горизонтальная дальность видимости в метрах или километрах. При видимости от 1 до 10 км при отсутствии осадков обычно наблюдается дымка, при ухудшении видимости до 1 км и менее - туман. В сухую погоду видимость может ухудшаться дымом, пылью или мглою.
Явления - указаны атмосферные явления, наблюдавшиеся в срок или в последний час перед сроком; фигурными скобками обозначены явления, наблюдавшиеся между сроками (за 1-3 часа до срока); квадратными скобками обозначены град или гололедные отложения с указанием их диаметра в мм.
Облачность - указаны через наклонную черту общая и нижняя облачность в баллах и высота нижней границы облаков в метрах; квадратными скобками обозначены формы облаков: Ci - перистые, Cs - перисто-слоистые, Cc - перисто-кучевые, Ac - высококучевые, As - высокослоистые, Sc - слоисто-кучевые, Ns - слоисто-дождевые, Cu - кучевые, Cb - кучево-дождевые. Подробнее классификацию облаков см. в Атласе облаков (PDF).
T - Температура воздуха - температура, измеренная на высоте 2 м над землей.
Td - Температура точки росы - температура, при понижении до которой содержащийся в воздухе водяной пар достигнет насыщения.
f - Относительная влажность воздуха - влажноcть воздуха, измеренная на высоте 2 м над землей.
Te - Эффективная температура - температура, которую ощущает одетый по сезону человек в тени. Характеристика душности погоды. При расчете учитывается влияние влажности воздуха и скорости ветра на теплоощущения человека.
Tes - Эффективная температура на солнце - температура, которую ощущает человек, с поправкой на солнечный нагрев. Характеристика знойности погоды. Зависит от высоты солнца над горизонтом, облачности и скорости ветра. Ночью, в пасмурную погоду, а также при ветре 12 м/с и более поправка равна нулю.
P - Атмосферное давление - приведенное к уровню моря атмосферное давление.
Po - Атмосферное давление - измеренное на уровне метеостанции атмосферное давление.
Tmin - Минимальная температура - минимум температуры воздуха на высоте 2 м над землей.
Tmax - Максимальная температура - максимум температуры воздуха на высоте 2 м над землей.
R - Количество осадков - Количество выпавших осадков за период времени, мм. При наведении курсора мыши на число - период времени, за который выпало указанное количество осадков.
R24 - Количество осадков - Количество выпавших осадков за 24 часа, мм.
S - Снежный покров - Высота снежного покрова, см. При наведении курсора мыши на число - состояние снежного покрова и степень покрытия местности в баллах.